STARLINK-1267, 45384

Orbit data source: Space-Track

STARLINK-1267, 45384 is a payload satellite owned by SpaceX/Seattle (US) in LEO that was launched on Wed, 18 Mar 2020 UTC via an FALCON 9 launch vehicle from the Air Force Eastern Test Range (AFETR). Payload-class satellites include a variety of spacecraft equipped with specific instruments for various scientific and technological missions. These include communications satellites like Starlink; space stations such as the ISS; scientific satellites like the Hubble; Earth observation satellites from companies like Planet Labs, Umbra, and HawkEye 360; GPS; miniature CubeSats for education and research; and military/defense satellites.

Loading next visibility...
Identifier
45384, 2020-019AA
Orbit
LEO
Country
Flag of USUS
Related business
Manufacturer
SpaceX/Seattle
Mission
Operational Commercial Communications
Bus & Motor
STARLINK, Unknown motor
Mass
260 kg wet, ~248 kg dry
Launch date (UTC)
2020-03-18 (6 years ago)
Launch vehicle
FALCON 9
Launch site
Air Force Eastern Test Range (AFETR)
Object type
Payload
Rocket body
Debris
Shape & HBR
Box + 1 Pan, 10.1 m
Radar Cross Section
13.562 m², Large (>1 m²)

Expand to show TLE details & history
Last TLE update: 16 hours ago

TLE from 16 hours ago
0 STARLINK-1267
1 45384U 20019AA  25350.33337963  .00122453  00000-0  66829-2 0  9998
2 45384  53.0526 161.3494 0000872  55.3176 355.6104 15.13393010  5699
Epoch: 2025-12-16T08:00Z
TLE epoch observation values (Epoch: 2025-12-16T08:00:04.000Z)
Latitude
38.4728°
Longitude
-7.41695°
Altitude
528.522 km
Speed
7.604 km/s
True Right ascension
13h 11m 16s
True Declination
38° 17' 59"
Sunlit
Object was in daylight at epoch
Visualization orbit readout
Latitude
Unknown
Longitude
Unknown
Altitude
Unknown
Speed
Unknown
Apparent Right ascension
Unknown
Apparent Declination
Unknown
Sunlit
N/A
Visualization observer readout
Local Sidereal Time
22:27:35
Azimuth
Unknown
Elevation
Unknown
Doppler factor
Unknown
Orbital elements
Apogee altitude
526.735 km
Perigee altitude
525.531 km
Semi-major axis
6,904.27 km
Eccentricity
0.00009
Inclination
53.0526°
RAAN
161.3494°
Arg. of periapsis
55.3176°
True anomaly
355.60964°
Mean anomaly
355.6104°
Eccentric anomaly
355.61002°
Mean motion
3.78326 °/min
Orbital period
95.16 mins
BSTAR
0.0066829
Loading maneuver chart data...
Computing Atmospheric mass density...
Loading historical data...
Loading historical data...
Loading historical data...
Loading historical data...
Loading historical data...
Loading historical data...
Loading historical data...

Documentation

Showing up to 5 results
|